Preview of NWS' New Version of Forecast
This preview is not operational and should not be used for support decisions.
Latest weather observations around

Ottawa Municipal Airport (KOWI)

Using English Units (Switch to International System of Units)
Date/ Time (CDT) Wind (mph) Vis. (mi) Weather Sky Cond. Temp (°F) Rel. Humidity Wind Chill (°F) Heat Index (°F) Pressure Precip. (in)
Air Dwpt 6 hour Altimeter (inHg) Sea level (inHg) 1 hr 3 hr 6 hr
Max Min
Sep 23 12:55 SE 8 10 Clear   79 63     58%   79 30.11        
Sep 23 12:35 SSE 8 10 Clear   77 63     61%   77 30.11        
Sep 23 12:15 SE 8 10 Clear   77 63     61%   77 30.12        
Sep 23 11:55 SSE 10 10 Clear   75 63     65%   75 30.13        
Sep 23 11:35 SSE 8 10 Clear CLR 73 63     69%   74 30.12        
Sep 23 11:15 ESE 6 10 Clear   72 63     73%   72 30.13        
Sep 23 10:55 SE 5 10 Clear CLR 72 63     73%   72 30.13        
Sep 23 10:35 SSE 6 10 Clear   68 63     83%     30.13        
Sep 23 10:15 ESE 5 10 Clear   66 64     94%     30.13        
Sep 23 09:55 ESE 5 10 Clear   64 64     100%     30.13        
Sep 23 09:35 Calm 8 Clear   64 63     94%     30.12        
Sep 23 09:15 Calm 0.25 Clear   63 63     100%     30.11        
Sep 23 08:55 SE 3 0.25 Fog OVC002 61 61     100%     30.1        
Sep 23 08:35 Calm   Clear   59 59     100%     30.1        
Sep 23 08:10 Calm   Clear   57 55     94%     30.1        
Sep 23 07:55 S 3   Clear   55 55     100%     30.09        
Sep 23 07:35 Calm   Clear   55 55     100%     30.09        
Sep 23 07:15 Calm   Clear   55 55     100%     30.09        
Sep 23 06:50 Calm 0.25 Clear   54 54     100%     30.08        
Sep 23 06:30 SSE 3 0.25 Clear   54 54     100%     30.08        
Sep 23 06:15 Calm 0.25 Clear   54 54     100%     30.08        
Sep 23 05:50 Calm 2.5 Clear   55 54     94%     30.07        
Sep 23 05:35 Calm 0.25 Clear   55 55     100%     30.06        
Sep 23 05:15 Calm 3 Clear   54 54     100%     30.06        
Sep 23 04:55 Calm 1.25 Clear   55 55     100%     30.06        
Sep 23 04:35 Calm 0.5 Clear   55 55     100%     30.06        
Sep 23 04:15 S 5 0.25 Fog VV002 55 55     100%     30.05        
Sep 23 03:55 S 5 0.25 Fog VV002 55 55     100%     30.05        
Sep 23 03:35 Calm 0.5 Clear   55 55     100%     30.05        
Sep 23 03:15 Calm   Clear   55 55     100%     30.06        
Sep 23 02:55 Calm   Clear   55 55     100%     30.06        
Sep 23 02:35 Calm 1.5 Clear   57 57     100%     30.06        
Sep 23 02:10 Calm 0.25 Clear   57 57     100%     30.06        
Sep 23 01:55 Calm 2 Clear   57 57     100%     30.06        
Sep 23 01:35 Calm 0.25 Clear   57 57     100%     30.05        
Sep 23 01:15 Calm 0.25 Clear   57 57     100%     30.05        
Sep 23 00:55 Calm   Clear   59 59     100%     30.05        
Sep 23 00:35 Calm 2 Clear   59 59     100%     30.05        
Sep 23 00:15 Calm 0.25 Clear   59 59     100%     30.05        
Sep 22 23:55 Calm 7 Clear CLR 61 61     100%     30.04        
Sep 22 23:35 Calm 5 Clear   59 59     100%     30.04        
Sep 22 23:15 WNW 3 2.5 Clear   61 61     100%     30.04        
Sep 22 22:55 Calm 7 Clear   61 61     100%     30.04        
Sep 22 22:35 Calm 2 Clear   61 61     100%     30.03        
Sep 22 22:15 Calm 9 Clear   61 61     100%     30.02        
Sep 22 21:55 Calm 7 Clear   63 61     94%     30.01        
Sep 22 21:35 Calm 10 Clear   63 63     100%     30.01        
Sep 22 21:15 Calm 10 Clear   63 63     100%     30.01        
Sep 22 20:55 Calm 10 Clear   64 64     100%     30        
Sep 22 20:30 Calm 10 Clear   64 64     100%     29.99        
Sep 22 20:15 Calm 10 Clear   64 64     100%     29.98        
Sep 22 19:55 NNW 3 10 Clear   66 64     94%     29.97        
Sep 22 19:35 NNW 7 6 Clear   68 64     88%     29.96        
Sep 22 19:15 NNW 9 4 Clear   70 64     83%     29.95        
Sep 22 18:55 NNW 8 7 Clear   72 64     78%   72 29.94        
Sep 22 18:35 NNW 10 10 Clear   72 64     78%   72 29.93        
Sep 22 18:15 NNW 14 10 Mostly Clear FEW024 73 64     73%   74 29.92        
Sep 22 17:55 NW 16 10 Mostly Clear FEW024 75 66     74%   76 29.91        
Sep 22 17:35 WNW 17 10 Clear   77 66     69%   78 29.9        
Sep 22 17:15 NW 15 10 Clear   79 68     70%   80 29.88        
Sep 22 16:55 NW 14 10 Clear   79 68     70%   80 29.88        
Sep 22 16:30 NW 13 10 Clear   79 72     79%   82 29.87        
Sep 22 16:15 W 17 10 Clear   82 70     66%   86 29.86        
Sep 22 15:55 WSW 12 10 Clear   84 72     66%   90 29.85        
Sep 22 15:35 W 7 10 Clear   82 72     70%   87 29.85        
Sep 22 15:15 W 12 10 Clear   84 72     66%   90 29.85        
Sep 22 14:55 SW 9 10 Clear   84 72     66%   90 29.84        
Sep 22 14:35 SW 10 10 Clear   82 72     70%   87 29.84        
Sep 22 14:15 SW 12 10 Clear   82 73     74%   88 29.85        
Sep 22 13:55 SW 13 10 Clear   79 75     89%   82 29.85        
Sep 22 13:35 SW 10 9 Clear   77 75     94%   79 29.86        
Sep 22 13:15 SW 13 8 Clear   79 75     89%   82 29.86        
Sep 22 12:55 SSW 14 10 Clear   79 75     89%   82 29.86        
Sep 22 12:35 SSW 10 10 Clear   79 75     89%   82 29.87        
Sep 22 12:15 SSW 10 10 Clear   77 73     89%   79 29.87        
Sep 22 11:55 SSW 13 10 Cloudy SCT012 SCT023 OVC060 77 73     89%   79 29.88        
Sep 22 11:35 SSW 10 10 Clear   75 73     94%   77 29.88        
Sep 22 11:15 S 12 10 Clear   73 72     94%   75 29.89        
Sep 22 10:55 SSW 9 10 Cloudy OVC014 72 72     100%   73 29.88        
Sep 22 10:35 SSW 6 10 Cloudy OVC017 72 72     100%   73 29.88        
Sep 22 10:15 S 9 10 Clear   72 72     100%   73 29.87        
Sep 22 09:55 SSW 7 10 Clear   72 72     100%   73 29.87        
Sep 22 09:35 W 5 10 Clear   72 70     94%   73 29.85        
Sep 22 09:15 W 9 10 Clear   72 72     100%   73 29.85        
Sep 22 08:55 NNW 5 10 Clear   72 72     100%   73 29.82        
Sep 22 08:30 NNW 6 1.25 Clear   72 72     100%   73 29.83        
Sep 22 08:15 N 8 1 Clear   72 72     100%   73 29.83        
Sep 22 07:55 Calm 1 Fog/Mist OVC003 72 72     100%   73 29.84   1    
Sep 22 07:35 SSE 6 2 Clear   72 72     100%   73 29.85        
Sep 22 07:15 S 8 2.5 Clear   72 72     100%   73 29.86        
Sep 22 06:55 SSE 8 3 Clear   72 72     100%   73 29.87        
Sep 22 06:35 SSE 6 3 Fog/Mist SCT021 BKN027 OVC037 72 72     100%   73 29.88        
Sep 22 06:15 SSE 7 5 Clear   72 72     100%   73 29.89        
Sep 22 05:55 S 7 7 Clear   72 72     100%   73 29.89        
Sep 22 05:35 S 6 5 Clear   72 72     100%   73 29.9        
Sep 22 05:15 SSW 9 4 Clear   72 72     100%   73 29.91        
Sep 22 04:55 SW 9 4 Clear   73 73     100%   75 29.9        
Sep 22 04:35 SSW 9 9 Clear   73 73     100%   75 29.89        
Sep 22 04:15 SSW 10 9 Cloudy SCT032 BKN039 OVC080 73 73     100%   75 29.89        
Sep 22 03:55 SSW 10 9 Clear   73 72     94%   75 29.9        
Sep 22 03:35 SSW 13 10 Clear   75 72     89%   77 29.89        
Sep 22 03:15 S 13 10 Clear   75 72     89%   77 29.89        
Sep 22 02:55 S 14 10 Clear   75 72     89%   77 29.88        
Sep 22 02:35 S 14 10 Clear   75 72     89%   77 29.89        
Sep 22 02:15 S 13 10 Clear   75 70     83%   76 29.9        
Sep 22 01:55 S 14 10 Clear   75 70     83%   76 29.9        
Sep 22 01:35 S 15 10 Mostly Cloudy FEW055 FEW065 BKN075 75 70     83%   76 29.91        
Sep 22 01:15 S 14 10 Clear   75 70     83%   76 29.91        
Sep 22 00:55 S 13 10 Clear   75 70     83%   76 29.91        
Sep 22 00:35 S 12 10 Clear   75 70     83%   76 29.91        
Sep 22 00:15 S 12 10 Clear   75 70     83%   76 29.91        
Sep 21 23:55 S 14 10 Clear CLR 75 70     83%   76 29.92        
Sep 21 23:35 S 12 10 Clear   75 70     83%   76 29.92        
Sep 21 23:15 S 14 10 Clear   77 72     83%   78 29.92        
Sep 21 22:55 S 13 10 Partly Cloudy FEW044 SCT050 SCT055 77 72     83%   78 29.93        
Sep 21 22:35 S 10 10 Clear   77 72     83%   78 29.93        
Sep 21 22:15 S 12 10 Clear   75 72     89%   77 29.92        
Sep 21 21:55 S 12 10 Clear   75 73     94%   77 29.91        
Sep 21 21:30 S 12 10 Clear   77 73     89%   79 29.9        
Sep 21 21:15 S 12 10 Clear   77 73     89%   79 29.91        
Sep 21 20:55 S 13 10 Mostly Cloudy FEW025 FEW042 BKN085 77 73     89%   79 29.9        
Sep 21 20:35 S 13 10 Clear   77 73     89%   79 29.9        
Sep 21 20:15 S 12 10 Clear   75 73     94%   77 29.9        
Sep 21 19:55 S 14 10 Clear   77 75     94%   79 29.91        
Sep 21 19:35 SSE 13 10 Clear   77 75     94%   79 29.91        
Sep 21 19:15 SSE 13 10 Clear   77 75     94%   79 29.91        
Sep 21 18:55 S 14 9 Clear   77 75     94%   79 29.92        
Sep 21 18:35 S 13 9 Clear   77 75     94%   79 29.92        
Sep 21 18:10 SSE 16 10 Clear   77 73     89%   79 29.91        
Sep 21 17:50 S 16 9 Clear   77 73     89%   79 29.92        
Sep 21 17:30 SSE 14 10 Clear   75 73     94%   77 29.92        
Sep 21 17:15 SSE 12 10 Clear   75 73     94%   77 29.92        
Sep 21 16:50   10 Clear   75 72     89%   77 29.93        
Sep 21 16:35   10 Clear   75 72     89%   77 29.94        
Sep 21 16:15 SSE 14 10 Clear CLR 75 72     89%   77 29.94        
Sep 21 15:55 SSE 15 10 Clear   75 72     89%   77 29.94        
Sep 21 15:30 SSE 14 5 Clear   73 72     94%   75 29.96        
Sep 21 15:15 SSE 9 10 Clear   73 72     94%   75 29.96        
Sep 21 14:55 SSE 15 2 Clear   73 72     94%   75 29.97        
Sep 21 14:35 S 16 9 Clear   73 72     94%   75 29.97        
Sep 21 14:15 S 13 10 Clear   73 73     100%   75 29.97        
Sep 21 13:55 SSW 15 2 Clear   73 72     94%   75 29.98        
Sep 21 13:35 SSW 16 10 Clear   75 72     89%   77 29.98        
Sep 21 13:15 S 20 10 Cloudy and Windy BKN013 OVC019 75 73     94%   77 29.97        
Sep 21 12:55 S 16 10 Clear   75 73     94%   77 29.97        
Sep 21 12:30 S 18 10 Clear   77 75     94%   79 29.96        
Sep 21 12:10 S 17 10 Cloudy SCT015 SCT021 OVC031 75 75     100%   77 29.97        
Sep 21 11:55 S 16 7 Clear   75 75     100%   77 29.97        
Sep 21 11:35 S 17 5 Clear   75 75     100%   77 29.98        
Sep 21 11:15 S 17 5 Clear   75 75     100%   77 29.98        
Sep 21 10:55 S 16 8 Clear   75 75     100%   77 29.98        
Sep 21 10:35 S 16 5 Clear   75 75     100%   77 29.98        
Sep 21 10:15 S 17 9 Clear   77 73     89%   79 29.98        
Sep 21 09:55 S 17 8 Clear   77 73     89%   79 29.97        
Sep 21 09:35 S 16 9 Clear   77 73     89%   79 29.97        
Sep 21 09:15 S 12 10 Clear   77 73     89%   79 29.97        
Sep 21 08:55 S 14 10 Cloudy OVC017 77 73     89%   79 29.97        
Sep 21 08:35 S 13 10 Clear   75 73     94%   77 29.97        
Sep 21 08:10 S 13 10 Clear   75 73     94%   77 29.97        
Sep 21 07:55 S 13 10 Clear   75 73     94%   77 29.97        
Sep 21 07:35 S 14 10 Clear   75 73     94%   77 29.97        
Sep 21 07:15 S 13 10 Cloudy OVC016 75 73     94%   77 29.97        
Sep 21 06:55 S 13 10 Clear   75 73     94%   77 29.96        
Sep 21 06:35 S 12 10 Cloudy OVC013 73 73     100%   75 29.96        
Sep 21 06:15 S 12 10 Clear   73 73     100%   75 29.96        
Sep 21 05:55 SSE 14 10 Clear   73 73     100%   75 29.95        
Sep 21 05:35 SSE 14 10 Clear   73 73     100%   75 29.95        
Sep 21 05:15 S 13 10 Clear   73 73     100%   75 29.96        
Sep 21 04:55 S 14 10 Clear   73 73     100%   75 29.95        
Sep 21 04:35 SSE 12 10 Clear   73 73     100%   75 29.95        
Sep 21 04:15 SSE 13 10 Clear   73 73     100%   75 29.95        
Sep 21 03:55 S 14 10 Clear   73 73     100%   75 29.96        
Sep 21 03:35 S 14 10 Clear   73 73     100%   75 29.96        
Sep 21 03:10 S 13 10 Clear   73 73     100%   75 29.96        
Sep 21 02:55 SSE 12 10 Clear   73 72     94%   75 29.96        
Sep 21 02:35 S 14 10 Clear   73 72     94%   75 29.96        
Sep 21 02:15 SSE 14 10 Clear   73 72     94%   75 29.96        
Sep 21 01:55 S 13 10 Clear   73 72     94%   75 29.97        
Sep 21 01:35 S 13 10 Cloudy BKN013 OVC020 73 72     94%   75 29.97        
Sep 21 01:15 S 12 10 Clear   73 72     94%   75 29.97        
Sep 21 00:55 S 15 10 Clear   73 72     94%   75 29.97        
Sep 21 00:35 SSE 16 10 Clear   72 72     100%   73 29.96        
Sep 21 00:15 SSE 15 10 Clear   72 72     100%   73 29.96        
Sep 20 23:55   10 Clear   72 72     100%   73 29.97        
Sep 20 23:35 SSE 14 10 Clear   72 72     100%   73 29.97        
Sep 20 23:15 SSE 13 10 Cloudy OVC009 72 72     100%   73 29.97        
Sep 20 22:55 SSE 15 10 Cloudy BKN007 OVC010 72 72     100%   73 29.97        
Sep 20 22:35 SSE 13 10 Clear   72 72     100%   73 29.97        
Sep 20 22:15 SE 14 7 Clear   72 72     100%   73 29.97        
Sep 20 21:55 SE 14 7 Clear   72 72     100%   73 29.96        
Sep 20 21:35 SSE 14 10 Clear   72 72     100%   73 29.96        
Sep 20 21:15 SSE 14 10 Clear   73 72     94%   75 29.96        
Sep 20 20:55 SSE 14 10 Clear   73 72     94%   75 29.95        
Sep 20 20:35 SSE 14 10 Clear   73 72     94%   75 29.96        
Sep 20 20:15 SSE 14 9 Clear   73 72     94%   75 29.96        
Sep 20 19:55 SSE 14 9 Clear   73 72     94%   75 29.95        
Sep 20 19:35 SE 14 10 Clear   73 72     94%   75 29.95        
Sep 20 19:15 SSE 14 10 Clear   73 72     94%   75 29.95        
Sep 20 18:55 SSE 10 10 Clear   73 72     94%   75 29.95        
Sep 20 18:35 SSE 12 9 Clear   72 72     100%   73 29.95        
Sep 20 18:15 SSE 12 6 Fog/Mist SCT010 OVC014 72 72     100%   73 29.95        
Sep 20 17:55 SSE 12 1.75 Clear   72 72     100%   73 29.96        
Sep 20 17:35 SSE 15 10 Clear   73 72     94%   75 29.96        
Sep 20 17:15 SSE 16 10 Clear   75 72     89%   77 29.95        
Sep 20 16:55 SSE 21 10 Cloudy and Windy SCT013 BKN027 OVC038 73 72     94%   75 29.96        
Sep 20 16:30 SSE 21 7 Clear and Windy   75 70     83%   76 29.96        
Sep 20 16:15 SSE 14 9 Clear   75 72     89%   77 29.97        
Sep 20 15:55 SSE 17 10 Clear   77 72     83%   78 29.97        
Sep 20 15:35 SSE 18 2 Fog/Mist FEW020 SCT028 BKN035 73 73     100%   75 29.97        
Sep 20 15:10 SSE 18 3 Fog/Mist FEW017 OVC023 75 72     89%   77 29.99        
Sep 20 14:55 SSE 13 8 Clear   77 72     83%   78 29.98        
Sep 20 14:35 SSE 21 10 Clear and Windy   79 72     79%   82 29.98        
Sep 20 14:15 SSE 15 10 Clear   75 72     89%   77 29.99        
Sep 20 13:55 SSE 14 6 Clear   73 73     100%   75 30        
Sep 20 13:30 S 21 8 Clear and Windy   79 70     74%   80 30.01        
Sep 20 13:15 SSE 15 10 Clear   81 70     70%   84 30.01        
Sep 20 12:55 SSE 17 10 Clear   81 68     66%   83 30.01        
Sep 20 12:35 SE 17 9 Clear   81 68     66%   83 30.01        
Sep 20 12:15 SSE 20 10 Clear   82 68     62%   85 30.02        
Sep 20 11:55 SSE 16 10 Clear   82 68     62%   85 30.02        
Sep 20 11:35 SSE 17 10 Clear   84 68     58%   87 30.02        
Sep 20 11:15 S 14 9 Clear   81 70     70%   84 30.02        
Sep 20 10:55 SSE 15 10 Clear   81 68     66%   83 30.02        
Sep 20 10:30 SSE 14 10 Clear   81 70     70%   84 30.03        
Sep 20 10:15 S 13 9 Clear CLR 79 70     74%   80 30.03        
May 14 22:00 E 13 10 Clear   72 59     65%   71 29.82        
May 14 21:20 SW 14 10 Clear   72 59     65%   71 29.83        
May 14 20:40   6 Clear   70 63     78%     29.83        
May 14 17:20 SSW 14 10 Clear   72 59     65%   71 29.82        
May 14 15:40 S 7 10 Clear   81 70     70%   84 29.84        
May 14 14:00 WSW 7 9 Clear   86 68     55%   89 29.88        
May 14 11:20 SSW 13 9 Clear   81 68     66%   83 29.92        
May 14 03:20 S 7 10 Clear   70 64     83%     29.9        
May 13 21:20 SSE 10 10 Clear   75 66     74%   76 29.89        
May 13 05:20 S 7 9 Clear   66 64     94%     29.95        
May 12 08:00 S 12 10 Clear   72 64     78%   72 29.86        
May 12 03:00 S 14 10 Clear   73 64     73%   74 29.83        
May 12 00:00 S 13 10 Clear   75 64     69%   76 29.82        
May 11 21:20 S 13 10 Clear   75 63     65%   75 29.76        
May 11 19:40 S 16 9 Clear   81 64     58%   82 29.72